Retour au catalogue

STARLINK-5221

ActifCommunicationsVLEO
NORAD 54091·PAYLOAD·🇺🇸 United States

Lancé Oct 20, 2022 depuis Cape Canaveral Space Force Station

Loading…

Prochains Passages (prochaines 24 heures)

TLE

FraisSource: CelesTrak SupGP

Époque: Sep 14, 2026, 20:51 UTC

1 54091C 22136AS  26257.86923611  .00740320  00000+0  46123-1 0  2570
2 54091  53.1592 203.8295 0001157  91.8842 118.8267 15.08705235    11

Suivez STARLINK-5221 en temps réel avec AllMySat

Download on the App Store